Regional Weather Roundup
Issued by NWS Upton, NY

Current Version | Previous Version | Graphics & Text | Print | Product List | Glossary Off
Versions: 1 2 3 4 5 6 7 8 9 10 11 12 13 14 15 16 17 18 19 20 21 22 23 24 25 26 27 28 29 30

000
ASUS41 KOKX 241105
RWROKX

REGIONAL WEATHER ROUNDUP
NATIONAL WEATHER SERVICE NEW YORK NY
700 AM EDT WED AUG 24 2016

NOTE: "FAIR" INDICATES FEW OR NO CLOUDS BELOW 12,000 FEET WITH NO
SIGNIFICANT WEATHER AND/OR OBSTRUCTIONS TO VISIBILITY.

NYZ071-072-176-178-NJZ106-104-241200-
NEW YORK CITY METRO AREA

CITY           SKY/WX    TMP DP  RH WIND       PRES   REMARKS
Central Park   CLEAR     68  58  70 W5        30.31R
LaGuardia APRT PTCLDY    73  59  61 CALM      30.27R
Kennedy INTL   PTCLDY    68  63  84 W5        30.28R
Newark/Liberty PTCLDY    66  59  78 SW3       30.28R
Bronx Bot Gard   N/A     68  57  68 N2        30.30R
Wall St Helipt SUNNY     70  63  78 W5        30.29R
Teterboro      CLEAR     65  58  78 CALM      30.27R
$$

NYZ177-179-078>081-241200-
LONG ISLAND NEW YORK

CITY           SKY/WX    TMP DP  RH WIND       PRES   REMARKS
Farmingdale    CLEAR     66  61  84 CALM      30.28R
MacArthur/ISP  PTCLDY    67  62  84 W5        30.28R
Shirley        CLEAR     63  61  93 CALM      30.29R
Riverhead      NOT AVBL
Westhampton    CLEAR     60  55  83 CALM      30.30R
Southampton      N/A     68  64  88 W3        30.24R
Bridgehampton    N/A     63  63 100 CALM      30.26R
East Hampton   FAIR      58  56  92 CALM      30.27R
Montauk          N/A     70  66  87 W6        30.28R
$$

NYZ052-065-067-241200-
HUDSON VALLEY

CITY           SKY/WX    TMP DP  RH WIND       PRES   REMARKS
White Plains   CLEAR     63  60  90 NW7       30.28R
Newburgh       CLEAR     61  59  94 CALM      30.30R
Montgomery     CLEAR     58  57  97 CALM      30.29R
Poughkeepsie   CLEAR     58  55  90 CALM      30.28R
Albany         PTCLDY    58  57  97 CALM      30.28R
$$

NJZ001-105-106-008-010-013-015-019>022-104-241200-
NEW JERSEY

CITY           SKY/WX    TMP DP  RH WIND       PRES   REMARKS
Newark/Liberty PTCLDY    66  59  78 SW3       30.28R
Teterboro      CLEAR     65  58  78 CALM      30.27R
Caldwell         N/A     60  58  92 CALM      30.30R
Morristown     CLEAR     55  55 100 CALM      30.30R
Somerville     CLEAR     56  55  97 CALM      30.29R
Linden         FAIR      64  58  80 CALM      30.31R
Sussex         CLEAR     55  55 100 CALM      30.31R
Abdover          N/A     56  54  93 CALM      30.31R
Trenton        CLEAR     60  57  89 CALM      30.29R
Millville      CLEAR     58  58 100 CALM      30.31R
Atlantic City  CLEAR     60  56  86 CALM      30.30R
Wrightstown    CLEAR     60  58  91 CALM      30.27R
Toms River     NOT AVBL
Belmar         CLEAR     62  58  86 W3        30.31R
$$

PAZ047>061-062-071-241200-
EASTERN PENNSYLVANIA

CITY           SKY/WX    TMP DP  RH WIND       PRES   REMARKS
Philadelphia   PTCLDY    68  61  78 W6        30.30R
Allentown      CLEAR     58  56  93 CALM      30.30R
Scranton       CLEAR     59  56  89 SE3       30.31R
$$

CTZ002-004>006-009-010-012-RIZ004-006-007-MAZ004-011-015-241200-
SOUTHERN NEW ENGLAND
 IN CT

CITY           SKY/WX    TMP DP  RH WIND       PRES   REMARKS
Bradley INTL   PTCLDY    58  55  90 NW3       30.28R
Hartford       CLEAR     65  59  81 CALM      30.27R
Danbury        CLEAR     56  54  93 CALM      30.31R
Wtrbury/Oxford PTCLDY    59  54  82 N5        30.31R
Bridgeport     CLEAR     66  60  81 N3        30.28R
Meriden        CLEAR     59  55  87 CALM      30.28R
New Haven      PTCLDY    61  59  93 N3        30.28R
Chester        FAIR      66  61  82 W3        30.29R
Groton         CLEAR     64  61  90 N3        30.27R
Wilimantic     CLEAR     57  55  93 N3        30.29R

 IN RI

CITY           SKY/WX    TMP DP  RH WIND       PRES   REMARKS
Providence     MOCLDY    64  60  87 W5        30.27R
Block Island   CLEAR     69  65  86 W10       30.27S
Westerly       CLEAR     60  56  86 CALM      30.28R
 IN MA

CITY           SKY/WX    TMP DP  RH WIND       PRES   REMARKS
Boston         PTCLDY    67  58  72 VRB3      30.24S
Worcester      CLEAR     60  54  80 W8        30.28R
Westfield      CLEAR     55  54  96 CALM      30.28R
Provincetown   SUNNY     65  62  90 SW6       30.25S
Nantucket      SUNNY     68  64  87 W7        30.26S
$$

ANZ330-335-338-340-345-350-353-355-241200-
COASTAL MARINE OBSERVATIONS


STATION/POSITION TIME  SKY/WX   TEMP    WIND        PRES    VSBY  WAVE
                                AIR SEA DIR/SP/G                  HT/PER
                 (UTC)          (F)     (DEG/KT/KT) (MB)    (MI)  (FT/S)
NY HARB ENTRANCE 0950            71 76  270/  8/ 10 1024.7          2/ 4
20S FIRE ISLAND  0950            74 77  260/ 10/ 12 1024.8          2/ 4
GREAT SOUTH BAY  1015            72 78  290/  6/ 12   N/A
23 SSW MONTAUK P 0950            73 74  250/ 12/ 12 1025.1          2/ 4
15 E BARNEGAT LI 1000               76                N/A           2/13
HUDSON CANYON    0950            74 77              1025.2          2/10
KINGS POINT      1000            68 75              1024.6
EXECUTION ROCKS  1000            71     280/  4/  6   N/A
CENTRAL LI SOUND 1000            72 74  260/  4/  6   N/A           1/ 3
EASTERN LI SOUND 1000            70 69  260/  6/  8   N/A
ROBBINS REEF     1012            67     270/  6/  8 1024.4
$$


>>>>>>>>>>>>>>>>>>>>>>>>>>>> KEY <<<<<<<<<<<<<<<<<<<<<<<<<<<
>                                                          <
>     SKY/WX - Sky Condition/Present Weather               <
>     TMP    - Temperature in Fahrenheit                   <
>     DP     - Dew Point in Fahrenheit                     <
>     RH     - Relative Humidity in Percent                <
>     WIND   - Direction (from) and Speed in MPH           <
>     PRES   - Mean Sea Level Pressure (inches of Hg)      <
>     WCI    - Wind Chill Index                            <
>     VSB    - VISIBILITY IN MILES                         <
>     HX     - HEAT INDEX                                  <
>     TC     - TEMPERATURE IN CELSIUS                      <
>     VRB    - VARIABLE WIND DIRECTION                     <
>                                                          <
>>>>>>>>>>>>>>>>>>>>>>>>>>>> KEY <<<<<<<<<<<<<<<<<<<<<<<<<<<




USA.gov is the U.S. government's official web portal to all federal, state and local government web resources and services.